Grand Rapids, MN

12:15 AM CDT on October 16, 2019 (GMT -0500)
Grand Rapids-Itasca County-Newstrom Field

Weather History for KGPZ - September, 2019

Change the Weather History Date:

Saturday, September 21, 2019

  Actual Average Record
Temperature  
Mean Temperature 70 °F -  
Max Temperature 75 °F 61 °F 82 °F (1941)
Min Temperature 64 °F 39 °F 16 °F (1934)
Cooling Degree Days 4    
Growing Degree Days 20 (Base 50)    
Moisture  
Dew Point 66 °F    
Average Humidity 89    
Maximum Humidity 100    
Minimum Humidity 78    
Precipitation  
Precipitation 0.24 in - - ()
Sea Level Pressure  
Sea Level Pressure 29.73 in    
Wind  
Wind Speed 11 mph ()    
Max Wind Speed 17 mph    
Max Gust Speed 24 mph    
Visibility 9.4 miles    
Events Rain    
Averages and records for this station are not official NWS values.
T = Trace of Precipitation, MM = Missing Value Source: Averaged Metar Reports

Daily Weather History Graph

Daily Weather History Graph

Search for Another Location

Airport or City:

Astronomy

Sep. 21, 2019 Rise Set
Actual Time 6:59 AM CDT 7:14 PM CDT
Civil Twilight 6:28 AM CDT 7:44 PM CDT
Nautical Twilight 5:52 AM CDT 8:20 PM CDT
Astronomical Twilight 5:15 AM CDT 8:57 PM CDT
Moon 11:26 PM CDT (9/21) 2:31 PM CDT (9/21)
Length of Visible Light 13h 15m
Length of Day
12h 14m
Waning Gibbous, 54% of the Moon is Illuminated
Sep 21
Waning Gibbous
Sep 21
Last Quarter
Sep 28
New
Oct 5
First Quarter
Oct 13
Full

Hourly Weather History & Observations

Time (CDT) Temp. Dew Point Humidity Pressure Visibility Wind Dir Wind Speed Gust Speed Precip Events Conditions
12:28 AM 66.2 °F 64.4 °F 94% 29.89 in 10.0 mi SSE 9.2 mph - N/A   Overcast
12:56 AM 68.0 °F 66.0 °F 93% 29.88 in 9.0 mi SSE 12.7 mph - N/A   Overcast
1:56 AM 69.1 °F 66.9 °F 93% 29.86 in 10.0 mi SSE 17.3 mph - N/A   Overcast
2:56 AM 69.1 °F 66.9 °F 93% 29.83 in 10.0 mi SSE 15.0 mph 20.7 mph N/A   Mostly Cloudy
3:23 AM 69.8 °F 66.2 °F 88% 29.83 in 10.0 mi SSE 15.0 mph - N/A   Partly Cloudy
3:56 AM 68.0 °F 66.0 °F 93% 29.79 in 10.0 mi SSE 12.7 mph - N/A   Clear
4:56 AM 68.0 °F 66.0 °F 93% 29.78 in 10.0 mi SSE 9.2 mph - N/A   Partly Cloudy
5:09 AM 66.2 °F 66.2 °F 100% 29.78 in 10.0 mi SSE 16.1 mph 20.7 mph N/A   Scattered Clouds
5:56 AM 68.0 °F 66.0 °F 93% 29.74 in 10.0 mi SSE 16.1 mph 21.9 mph 0.00 in Rain Light Rain
6:12 AM 68.0 °F 66.2 °F 94% 29.74 in 10.0 mi SSE 16.1 mph - 0.00 in Rain Light Rain
6:33 AM 68.0 °F 66.2 °F 94% 29.75 in 9.0 mi SSE 17.3 mph 20.7 mph 0.00 in Rain Light Rain
6:56 AM 66.9 °F 66.0 °F 97% 29.75 in 9.0 mi South 12.7 mph - 0.01 in Rain Light Rain
7:45 AM 68.0 °F 66.2 °F 94% 29.75 in 3.0 mi South 10.4 mph - 0.16 in Rain Light Rain
7:56 AM 68.0 °F 66.9 °F 96% 29.75 in 3.0 mi SSE 10.4 mph - 0.18 in Rain Rain
8:56 AM 68.0 °F 66.9 °F 96% 29.74 in 6.0 mi South 10.4 mph - 0.02 in Rain Light Rain
9:56 AM 69.1 °F 68.0 °F 96% 29.68 in 10.0 mi SSE 15.0 mph 24.2 mph 0.03 in Rain Light Rain
10:56 AM 69.1 °F 66.9 °F 93% 29.70 in 10.0 mi South 12.7 mph - 0.00 in   Mostly Cloudy
11:06 AM 69.8 °F 66.2 °F 88% 29.71 in 10.0 mi South 8.1 mph - N/A   Scattered Clouds
11:39 AM 69.8 °F 66.2 °F 88% 29.71 in 10.0 mi South 12.7 mph 17.3 mph N/A   Mostly Cloudy
11:54 AM 69.8 °F 66.2 °F 88% 29.71 in 10.0 mi South 10.4 mph - N/A   Overcast
11:56 AM 69.1 °F 66.0 °F 90% 29.70 in 10.0 mi South 11.5 mph 17.3 mph N/A   Overcast
12:56 PM 69.1 °F 66.9 °F 93% 29.71 in 10.0 mi South 12.7 mph - 0.00 in   Overcast
1:56 PM 70.0 °F 66.9 °F 90% 29.69 in 10.0 mi South 11.5 mph - 0.00 in   Overcast
2:49 PM 73.4 °F 68.0 °F 83% 29.68 in 10.0 mi South 11.5 mph - N/A   Overcast
2:56 PM 73.9 °F 69.1 °F 85% 29.67 in 10.0 mi South 10.4 mph 19.6 mph N/A   Overcast
3:56 PM 75.9 °F 69.1 °F 79% 29.65 in 10.0 mi South 13.8 mph - N/A   Mostly Cloudy
4:53 PM 75.2 °F 69.8 °F 83% 29.67 in 10.0 mi South 11.5 mph - N/A   Overcast
4:56 PM 75.0 °F 69.1 °F 82% 29.66 in 10.0 mi South 12.7 mph - N/A   Overcast
5:56 PM 75.9 °F 69.1 °F 79% 29.65 in 10.0 mi South 8.1 mph - N/A   Mostly Cloudy
6:56 PM 73.9 °F 69.1 °F 85% 29.67 in 10.0 mi SSW 5.8 mph - N/A   Partly Cloudy
7:56 PM 71.1 °F 64.0 °F 78% 29.69 in 10.0 mi SW 5.8 mph - N/A   Clear
8:56 PM 69.1 °F 62.1 °F 78% 29.71 in 10.0 mi SSW 4.6 mph - N/A   Clear
9:56 PM 64.9 °F 62.1 °F 90% 29.71 in 10.0 mi South 6.9 mph - N/A   Clear
10:56 PM 66.9 °F 61.0 °F 81% 29.73 in 10.0 mi SW 4.6 mph - N/A   Scattered Clouds
11:56 PM 64.9 °F 59.0 °F 81% 29.74 in 10.0 mi West 8.1 mph 18.4 mph N/A   Clear